Meacham, OR

9:05 PM PDT on July 24, 2017 (GMT -0700)
Meacham

Weather History for KMEH - November, 2012

Change the Weather History Date:

Wednesday, November 21, 2012

  Actual Average Record
Temperature  
Mean Temperature 35 °F -  
Max Temperature 42 °F 39 °F 57 °F (2002)
Min Temperature 28 °F 24 °F 3 °F (2013)
Degree Days  
Heating Degree Days 30    
Moisture  
Dew Point 31 °F    
Average Humidity 85    
Maximum Humidity 100    
Minimum Humidity 53    
Precipitation  
Precipitation 0.67 in - - ()
Sea Level Pressure  
Sea Level Pressure 29.93 in    
Wind  
Wind Speed 2 mph (West)    
Max Wind Speed 8 mph    
Max Gust Speed 34 mph    
Visibility 7 miles    
Events Fog , Rain , Snow    
Averages and records for this station are not official NWS values.
T = Trace of Precipitation, MM = Missing Value Source: NWS Daily Summary

Daily Weather History Graph

Daily Weather History Graph

Search for Another Location

Airport or City:

Trip Planner

Search our weather history database for the weather conditions in past years. The results will help you decide how hot, cold, wet, or windy it might be!

Date:

Astronomy

Nov. 21, 2012 Rise Set
Actual Time 7:01 AM PST 4:17 PM PST
Civil Twilight 6:28 AM PST 4:49 PM PST
Nautical Twilight 5:52 AM PST 5:26 PM PST
Astronomical Twilight 5:17 AM PST 6:01 PM PST
Moon 12:52 PM PST (11/21) 12:07 AM PST (11/21)
Length of Visible Light 10h 21m
Length of Day
9h 15m
Waxing Gibbous, 63% of the Moon is Illuminated
Nov 21
Waxing Gibbous
Nov 28
Full
Dec 6
Last Quarter
Dec 13
New
Dec 19
First Quarter

Hourly Weather History & Observations

Time (PST) Temp. Windchill Dew Point Humidity Pressure Visibility Wind Dir Wind Speed Gust Speed Precip Events Conditions
12:56 AM 41.0 °F 36.4 °F 37.9 °F 89% 29.68 in 1.5 mi Variable 6.9 mph - 0.08 in Rain Heavy Rain
1:08 AM 39.2 °F - 37.4 °F 93% 29.67 in 3.0 mi Calm Calm - 0.07 in Rain Light Rain
1:18 AM 39.2 °F - 37.4 °F 93% 29.68 in 2.0 mi Calm Calm - 0.10 in Rain Rain
1:34 AM 39.2 °F 37.0 °F 37.4 °F 93% 29.68 in 2.5 mi Variable 3.5 mph - 0.17 in Rain Rain
1:56 AM 37.9 °F 35.5 °F 36.0 °F 93% 29.69 in 3.0 mi Variable 3.5 mph - 0.29 in Rain Rain
2:35 AM 39.2 °F - 37.4 °F 93% 29.65 in 10.0 mi Calm Calm - 0.06 in   Overcast
2:56 AM 39.9 °F - 36.0 °F 86% 29.64 in 10.0 mi Calm Calm - 0.06 in   Mostly Cloudy
3:56 AM 35.1 °F - 34.0 °F 96% 29.65 in 10.0 mi Calm Calm - N/A   Partly Cloudy
4:56 AM 36.0 °F - 35.1 °F 97% 29.67 in 10.0 mi Calm Calm - N/A   Overcast
5:12 AM 35.6 °F 29.2 °F 33.8 °F 93% 29.72 in 1.8 mi West 8.1 mph 34.5 mph 0.05 in Snow Light Snow
5:20 AM 33.8 °F 28.6 °F 32.0 °F 93% 29.73 in 1.0 mi Variable 5.8 mph 25.3 mph 0.10 in Snow Light Snow
5:27 AM 33.8 °F 27.7 °F 32.0 °F 93% 29.74 in 0.5 mi Variable 6.9 mph - 0.14 in Fog , Snow Snow
5:42 AM 33.8 °F - 32.0 °F 93% 29.73 in 3.0 mi Calm Calm - 0.19 in Snow Light Snow
5:56 AM 34.0 °F - 33.1 °F 96% 29.78 in 10.0 mi Calm Calm - 0.19 in   Overcast
6:56 AM 34.0 °F - 33.1 °F 96% 29.80 in 10.0 mi Calm Calm - N/A   Overcast
7:56 AM 33.1 °F - 33.1 °F 100% 29.85 in 10.0 mi Calm Calm - N/A   Overcast
8:56 AM 35.1 °F - 30.0 °F 82% 29.88 in 10.0 mi Calm Calm - N/A   Overcast
9:56 AM 37.0 °F - 32.0 °F 82% 29.92 in 10.0 mi Calm Calm - N/A   Clear
10:56 AM 39.0 °F 36.8 °F 30.0 °F 70% 29.94 in 10.0 mi Variable 3.5 mph - N/A   Scattered Clouds
11:56 AM 39.9 °F 35.8 °F 27.0 °F 60% 29.95 in 10.0 mi Variable 5.8 mph - N/A   Mostly Cloudy
12:56 PM 39.9 °F 35.8 °F 26.1 °F 58% 29.96 in 10.0 mi Variable 5.8 mph - N/A   Overcast
1:56 PM 42.1 °F - 26.1 °F 53% 29.98 in 10.0 mi Calm Calm - N/A   Scattered Clouds
2:56 PM 39.9 °F - 25.0 °F 55% 30.01 in 10.0 mi Calm Calm - N/A   Overcast
3:56 PM 37.0 °F - 28.9 °F 73% 30.05 in 9.0 mi Calm Calm - 0.00 in   Overcast
4:56 PM 35.1 °F - 30.0 °F 82% 30.09 in 2.5 mi Calm Calm - 0.01 in Snow Light Snow
5:04 PM 35.6 °F - 30.2 °F 81% 30.04 in 9.0 mi Calm Calm - 0.00 in Snow Light Snow
5:40 PM 33.8 °F - 30.2 °F 87% 30.06 in 2.5 mi Calm Calm - 0.01 in Snow Light Snow
5:52 PM 33.8 °F - 30.2 °F 87% 30.07 in 2.0 mi Calm Calm - 0.02 in Snow Light Snow
5:56 PM 34.0 °F 29.8 °F 30.9 °F 89% 30.14 in 1.0 mi Variable 4.6 mph - 0.02 in Snow Light Snow
6:12 PM 33.8 °F - 30.2 °F 87% 30.08 in 3.0 mi Calm Calm - 0.02 in Snow Light Snow
6:56 PM 33.1 °F - 30.9 °F 92% 30.16 in 8.0 mi Calm Calm - 0.02 in Snow Light Snow
7:16 PM 33.8 °F 29.6 °F 30.2 °F 87% 30.11 in 10.0 mi Variable 4.6 mph - 0.00 in   Overcast
7:48 PM 33.8 °F 29.6 °F 30.2 °F 87% 30.14 in 10.0 mi Variable 4.6 mph - 0.00 in   Overcast
7:56 PM 33.1 °F 28.7 °F 30.0 °F 89% 30.21 in 10.0 mi Variable 4.6 mph - 0.00 in   Overcast
8:56 PM 30.9 °F - 28.9 °F 92% 30.23 in 10.0 mi Calm Calm - N/A   Scattered Clouds
9:56 PM 30.9 °F 27.5 °F 26.1 °F 82% 30.26 in 10.0 mi Variable 3.5 mph - N/A   Overcast
10:56 PM 28.9 °F - 26.1 °F 89% 30.28 in 10.0 mi Calm Calm - N/A   Clear
11:56 PM 28.0 °F - 24.1 °F 85% 30.30 in 10.0 mi Calm Calm - N/A   Clear